Weather Roundup
Issued by NWS Springfield, MO

Home | Current Version | Previous Version | Text Only | Print | Product List | Glossary On
Versions: 1 2 3 4 5 6 7 8 9 10 11 12 13 14 15 16 17 18 19 20 21 22 23 24 25 26 27 28 29 30 31 32 33 34 35 36 37 38 39 40 41 42 43 44 45 46 47 48 49 50
000
NZUS99 KSGF 250607
HRRSGF

HOURLY WEATHER
NATIONAL WEATHER SERVICE SPRINGFIELD MO
100 AM CDT FRI APR 25 2014

......SGF CWA......

CITY           SKY/WX    TMP DP  RH WIND       PRES   REMARKS
SPRINGFIELD    FAIR      51  45  79 NW7       29.88R
6HR MIN TEMP:  51; 6HR MAX TEMP:  59; 6HR PCP:  0.01;

JOPLIN         FAIR      49  44  83 SW5       29.92R
6HR MIN TEMP:  49; 6HR MAX TEMP:  59;

WEST PLAINS    CLOUDY    55  50  83 W12G17    29.80R
6HR MIN TEMP:  55; 6HR MAX TEMP:  64; 6HR PCP:  0.01;

ROLLA          MOCLDY    51  48  89 W13       29.78R
6HR MIN TEMP:  51; 6HR MAX TEMP:  57; 6HR PCP:  0.10;

OSAGE BEACH    FAIR      52  46  82 W7        29.85R
BRANSON        FAIR      54  43  66 NW8       29.89R

......SURROUNDING SGF CWA......

CITY           SKY/WX    TMP DP  RH WIND       PRES   REMARKS
CHANUTE        FAIR      45  41  86 CALM      29.91S
PARSONS        FAIR      43  40  89 CALM      29.92S
COFFEYVILLE    FAIR      48  44  86 SW3       29.92S
EMPORIA        FAIR      46  40  79 SW9       29.89S
GROVE OK       FAIR      50  45  81 CALM      29.93S
ROGERS AR      FAIR      50  43  77 W3        29.93R
SILOAM SPRINGS FAIR      48  39  71 CALM      29.94S
HARRISON AR    FAIR      53  44  71 NW9G17    29.88R
NEAR YELLVILLE FAIR      57  43  58 NW12G17   29.85R

......KANSAS AND MISSOURI......

CITY           SKY/WX    TMP DP  RH WIND       PRES   REMARKS
KANSAS CTY INT FAIR      48  43  82 SW8       29.86R
DOWNTOWN KC    FAIR      51  45  79 SW5       29.87R
COLUMBIA       FAIR      51  47  86 NW10      29.79R
SEDALIA        FAIR      52  47  83 W10       29.84R
ST JOSEPH      FOG       42  41  96 CALM      29.86R VSB 1/4
ST LOUIS       CLOUDY    58  54  86 W13       29.69S
SPIRIT OF STL  CLOUDY   N/A N/A N/A W16G23    29.70R
KIRKSVILLE     FAIR      50  46  86 NW9       29.79R
WICHITA        CLEAR     46  36  66 S6        29.91S
TOPEKA         FAIR      48  44  86 CALM      29.88R
OLATHE         FAIR      49  43  80 W5        29.87R

......TENNESSEE......

CITY           SKY/WX    TMP DP  RH WIND       PRES   REMARKS
MEMPHIS        MOCLDY    63  57  82 W12       29.77R
NASHVILLE      CLOUDY    61  59  93 S9        29.75F

......ARKANSAS.......

CITY           SKY/WX    TMP DP  RH WIND       PRES   REMARKS
FAYETTEVILLE   FAIR      46  43  89 CALM      29.92S
FT SMITH       FAIR      52  46  80 W12       29.92S
LITTLE ROCK    FAIR      62  50  64 W15G22    29.85R

......OKLAHOMA.......

CITY           SKY/WX    TMP DP  RH WIND       PRES   REMARKS
TULSA          FAIR      47  44  90 CALM      29.93S
PONCA CITY     FAIR      52  37  56 CALM      29.93S
MCALESTER      FAIR      49  43  80 CALM      29.97R
OKLAHOMA CITY  FAIR      51  38  60 SE5       29.96S

......IOWA............

CITY           SKY/WX    TMP DP  RH WIND       PRES   REMARKS
DES MOINES     FAIR      47  42  83 NW3       29.81R
QUAD CITIES    CLOUDY    51  48  89 NW14G23   29.70R

......ILLINOIS........

CITY           SKY/WX    TMP DP  RH WIND       PRES   REMARKS
QUINCY         CLOUDY    51  49  92 NW18      29.71S
CHICAGO        LGT RAIN  51  41  68 N3        29.64R




USA.gov is the U.S. government's official web portal to all federal, state and local government web resources and services.